#timestamp,LO_Frequency,Hit,StdDev 
1514761215.2,286046993.5,N
1514761235.0,286046990.2,N
1514761235.9,286046990.2,N
1514761255.8,286046989.0,N
1514761275.6,286046985.9,N
1514761295.4,286046982.1,N
1514761315.3,286046981.1,N
1514761335.1,286046976.2,N
1514761355.8,286046977.2,N
1514761375.7,286046974.6,N
1514761395.5,286046975.1,N
1514761415.4,286046975.1,N
1514761435.2,286046975.6,N
1514761455.0,286046972.9,N
1514761455.9,286046972.9,N
1514761475.8,286046970.9,N
1514761495.6,286046970.0,N
1514761515.5,286046968.7,N
1514761535.3,286046966.6,N
1514761555.1,286046966.7,N
1514761575.9,286046966.1,N
1514761595.7,286046966.7,N
1514761615.6,286046964.9,N
1514761635.4,286046961.3,N
1514761655.2,286046960.7,N
1514761675.1,286046958.6,Y
1514761676.0,286046958.6,P
1514761695.8,286046978.8,N
1514761715.7,286046976.2,N
1514761735.5,286046976.5,N
1514761755.3,286046974.7,Y
1514761775.2,286047001.1,P
1514761795.9,286046999.4,N
1514761815.7,286046998.4,N
1514761835.6,286046996.9,N
1514761855.4,286046997.9,N
1514761875.3,286046993.7,N
1514761895.1,286046994.3,N
1514761896.0,286046994.3,N
1514761915.8,286046994.4,N
1514761935.7,286046994.4,N
1514761955.5,286046993.6,N
1514761975.3,286046993.1,N
1514761995.2,286046988.9,N
1514762015.0,286046989.6,N
1514762015.9,286046989.6,N
1514762035.8,286046989.9,N
1514762055.6,286046987.2,N
1514762075.4,286046985.9,N
1514762095.3,286046986.1,N
1514762115.1,286046984.3,N
1514762135.8,286046984.4,N
1514762155.7,286046985.0,N
1514762175.5,286046980.9,Y
1514762195.4,286046991.3,P
1514762215.2,286046991.0,P
1514762235.0,286046989.5,P
1514762235.9,286046989.5,Y
1514762255.8,286046998.0,P
1514762275.6,286046996.7,N
1514762295.5,286046996.1,N
1514762315.3,286046996.3,N
1514762335.1,286046992.0,Y
1514762355.9,286046995.8,P
1514762375.7,286046995.9,P
1514762395.5,286046993.3,P
1514762415.4,286046993.4,Y
1514762435.2,286046998.2,P
1514762455.1,286046998.7,N
1514762456.0,286046998.7,N
1514762475.8,286046997.0,N
1514762495.6,286046995.1,Y
1514762515.5,286046997.5,P
1514762535.3,286046995.0,P
1514762555.2,286046997.6,N
1514762575.9,286046995.2,Y
1514762595.7,286046998.6,P
1514762615.6,286046996.5,P
1514762635.4,286046997.1,P
1514762655.3,286046998.3,N
1514762675.1,286046999.5,N
1514762676.0,286046999.5,N
1514762695.8,286046996.9,N
1514762715.7,286046997.9,N
1514762735.5,286046995.6,Y
1514762755.4,286046998.0,P
1514762775.2,286046996.3,P
1514762795.0,286046994.1,P
1514762795.9,286046994.1,Y
1514762815.8,286046997.5,P
1514762835.6,286046997.7,P
1514762855.5,286046999.2,N
1514762875.3,286046999.6,N
1514762895.1,286046995.1,Y
1514762915.9,286046998.0,P
1514762935.7,286046998.0,P
1514762955.6,286046997.4,P
1514762975.4,286046995.1,Y
1514762995.2,286046999.5,P
1514763015.1,286046996.7,P
1514763016.0,286046996.7,N
1514763035.8,286046997.6,N
1514763055.6,286046997.7,N
1514763075.5,286046996.8,Y
1514763095.3,286046998.3,P
1514763115.2,286046999.1,N
1514763135.0,286046999.4,N
1514763135.9,286046999.4,N
1514763155.8,286046997.1,Y
1514763175.6,286046998.9,P
1514763195.4,286046998.5,P
1514763215.3,286047001.0,P
1514763235.1,286046998.1,N
1514763255.9,286046998.8,N
1514763275.7,286046996.5,Y
1514763295.5,286046996.5,P
1514763315.4,286046995.4,P
1514763335.2,286046995.1,P
1514763355.1,286046996.9,N
1514763356.0,286046996.9,N
1514763375.8,286046997.4,N
1514763395.7,286046993.7,Y
1514763445.5,286046997.8,E
1514763455.4,286046996.9,N
1514763475.3,286046996.7,P
1514763495.1,286046996.6,P
1514763515.9,286046999.5,Y
1514763535.7,286046999.9,P
1514763555.5,286047000.0,N
1514763575.4,286047002.6,N
1514763595.2,286047001.2,N
1514763615.0,286046998.1,N
1514763616.0,286046998.1,N
1514763635.8,286046998.1,N
1514763655.6,286046999.3,N
1514763675.5,286046998.8,N
1514763695.3,286046998.9,N
1514763715.1,286047000.8,N
1514763735.9,286046998.6,N
1514763755.7,286047001.1,N
1514763775.6,286046998.1,N
1514763795.4,286047001.1,N
1514763815.3,286047001.2,N
1514763835.1,286046996.6,N
1514763836.0,286046996.6,N
1514763855.8,286046996.8,N
1514763875.7,286046997.1,N
1514763895.5,286046996.5,N
1514763915.3,286046996.5,N
1514763935.2,286046997.3,N
1514763955.0,286046996.8,N
1514763955.9,286046996.8,N
1514763975.8,286046997.2,N
1514763995.6,286046996.9,N
1514764015.4,286046997.1,N
1514764035.3,286046995.7,N
1514764055.1,286046993.3,Y
1514764075.9,286046995.4,P
1514764095.7,286046995.4,P
1514764115.5,286046999.4,N
1514764135.4,286047002.2,N
1514764155.2,286047005.6,N
1514764175.1,286047008.4,N
1514764176.0,286047008.4,N
1514764195.8,286047003.0,N
1514764215.6,286046999.8,N
1514764235.5,286047004.4,N
1514764255.3,286047001.7,N
1514764275.1,286047000.0,N
1514764295.9,286046998.8,N
1514764315.7,286046999.4,N
1514764335.6,286046996.7,N
1514764355.4,286046996.7,N
1514764375.2,286046998.1,N
1514764395.1,286047001.1,N
1514764396.0,286047001.1,N
1514764415.8,286046997.1,N
1514764435.7,286046996.5,N
1514764455.5,286046995.4,N
1514764475.3,286046995.9,N
1514764495.2,286046997.6,N
1514764515.0,286046996.1,N
1514764515.9,286046996.1,N
1514764535.7,286046994.2,N
1514764555.6,286046991.9,N
1514764575.4,286046990.3,N
1514764595.3,286046990.4,N
1514764615.1,286046988.6,N
1514764616.0,286046988.6,N
1514764635.8,286046988.7,N
1514764655.7,286046989.3,N
1514764675.5,286046990.0,N
1514764695.4,286046989.4,N
1514764715.2,286046986.9,N
1514764735.0,286046989.5,N
1514764735.9,286046989.5,N
1514764755.8,286046991.6,N
1514764775.6,286046989.4,N
1514764795.5,286046988.0,N
